Decoded METAR for FNLU provided by aerobaticsweb.org
Current time: Tuesday, 11 Aug, 2020, 04:03 UTC
(This may take a minute, please be patient)


The most recent METAR observation from FNLU in our system was generated at 2020/08/11 04:00

Original METAR code

2020/08/11 04:00
FNLU 110400Z VRB02KT 8000 SCT020 19/19 Q1014 NOSIG
METAR Observation for: FNLU
Date/Time of Observation: 11 August 2020, 04:00 UTC (11 August 2020, 05:00 WAT)
Wind: From varying directions at 2 kts (4 km/h)
Visibility: 8000 m (5.0 sm)
Sky Conditions: Scattered clouds at 2000 ft
Temperature: 19.0° C (66.2° F)
Dew Point: 19.0° C (66.2° F)
Relative Humidity: 100%
Altimeter: 1014 hPa/mbar (29.95" Hg)

Remarks:

No significant change expected


This decoding software is in development. If you see any mistakes in the decoding or an unparsed field that you know how to decode, please complete the Decode report form.

24 Hour Summary

Time (UTC) Temperature
°C (°F)
Dew Point
°C (°F)
Pressure
Inches (hPa)
Wind
mph (km/h)
Weather
00:00 11 August 21 (69 ) 19 (66 ) 29.94 (1014) S 5 (8)
01:00 11 August 20 (68 ) 19 (66 ) 29.94 (1014) S 5 (8)
02:00 11 August 20 (68 ) 19 (66 ) 29.94 (1014) Variable 2 (3)
03:00 11 August 19 (66 ) 18 (64 ) 29.94 (1014) Variable 3 (5)
04:00 11 August 19 (66 ) 19 (66 ) 29.94 (1014) Variable 2 (3)
05:00 10 August 21 (69 ) 20 (68 ) 29.91 (1013) SSE 7 (11)
06:00 10 August 21 (69 ) 19 (66 ) 29.94 (1014) ESE 7 (11)
07:00 10 August 22 (71 ) 19 (66 ) 29.97 (1015) ESE 6 (10)
08:00 10 August 22 (71 ) 19 (66 ) 29.97 (1015) ESE 5 (8)
09:00 10 August 23 (73 ) 19 (66 ) 29.97 (1015) SE 6 (10)
10:00 10 August 24 (75 ) 19 (66 ) 29.97 (1015) SE 8 (13)
11:00 10 August 25 (77 ) 19 (66 ) 29.94 (1014) SSE 6 (10)
12:00 10 August 23 (73 ) 20 (68 ) 29.91 (1013) W 7 (11)
13:00 10 August 25 (77 ) 19 (66 ) 29.88 (1012) W 7 (11)
14:00 10 August 25 (77 ) 20 (68 ) 29.88 (1012) W 7 (11)
15:00 10 August 25 (77 ) 19 (66 ) 29.85 (1011) WSW 10 (16)
16:00 10 August 25 (77 ) 19 (66 ) 29.85 (1011) SW 8 (13)
17:00 10 August 23 (73 ) 19 (66 ) 29.88 (1012) SSW 7 (11)
18:00 10 August 23 (73 ) 19 (66 ) 29.88 (1012) SSW 6 (10)
19:00 10 August 22 (71 ) 19 (66 ) 29.91 (1013) S 9 (14)
20:00 10 August 22 (71 ) 19 (66 ) 29.94 (1014) S 7 (11)
21:00 10 August 21 (69 ) 19 (66 ) 29.94 (1014) S 7 (11)
22:00 10 August 21 (69 ) 19 (66 ) 29.94 (1014) S 6 (10)
23:00 10 August 20 (68 ) 19 (66 ) 29.97 (1015) S 5 (8)
The information presented here is taken from products produced by the U.S. National Weather Service and other national and international agencies. Landings.com does not present this as official information. Please refer to official weather briefings for flight critical information.


access provided by Dr. Guenther Eichhorn at aerobaticsweb.org